Regional Weather Roundup
Issued by NWS Charleston, SC

Current Version | Previous Version | Graphics & Text | Print | Product List | Glossary On
Versions: 1 2 3 4 5 6 7 8 9 10 11 12 13 14 15 16 17 18 19 20 21 22 23 24 25 26 27 28 29 30 31 32 33 34 35 36 37 38 39 40 41 42 43 44 45 46 47 48 49 50
000 ASUS42 KCHS 300912 RWRCHS REGIONAL WEATHER ROUNDUP NATIONAL WEATHER SERVICE CHARLESTON SC 500 AM EDT SUN AUG 30 2015 NOTE: "FAIR" INDICATES FEW OR NO CLOUDS BELOW 12,000 FEET WITH NO SIGNIFICANT WEATHER AND/OR OBSTRUCTIONS TO VISIBILITY. NOT ALL STATIONS ARE QUALITY CONTROLLED BY THE NATIONAL WEATHER SERVICE. USE DATA WITH CAUTION...ESPECIALLY DEWPOINT OBSERVATIONS. SCZ027-030-031-034>040-042>050-301000- ...SOUTHEAST SOUTH CAROLINA... CITY SKY/WX TMP DP RH WIND PRES REMARKS N CHARLESTON CLOUDY 75 72 90 E6 30.08S THUNDER WATERFRONT PRK N/A 78 76 94 N6 30.05S MOUNT PLEASANT FAIR 73 73 100 CALM 30.08S JOHNS ISLAND TSTM 73 73 100 W6 30.09R PINOPOLIS N/A 79 72 78 E7 30.00F MONCKS CORNER FAIR 73 66 78 CALM 30.08S SUMMERVILLE FAIR 70 70 100 CALM 30.09S BEAUFORT MCAS LGT RAIN 73 72 96 N3 30.06F BEAUFORT ARPT DRIZZLE 73 72 94 CALM 30.06S HILTON HEAD IS CLOUDY 73 73 100 CALM 30.07S FOG WALTERBORO CLOUDY 75 70 83 CALM 30.09S ALLENDALE PTSUNNY 73 66 78 CALM 30.08R ...SOUTHERN MIDLANDS AND PEE DEE... CITY SKY/WX TMP DP RH WIND PRES REMARKS GEORGETOWN NOT AVBL KINGSTREE NOT AVBL ORANGEBURG CLOUDY 72 62 71 CALM 30.10S BARNWELL FAIR 73 64 73 E3 30.10S AIKEN FAIR 70 57 64 NE3 30.14R MANNING FAIR 66 61 82 CALM 30.10S COLUMBIA CLOUDY 73 61 65 CALM 30.10S SUMTER CLOUDY 68 61 80 NE3 30.08F FLORENCE PTCLDY 69 63 81 CALM 30.11R MYRTLE BEACH MOCLDY 73 68 83 CALM 30.11S N MYRTLE BEACH CLOUDY 73 69 87 CALM 30.09S $$ GAZ063-065-086>088-099>101-113>116-118-119-134>141-150-301000- ...SOUTHEAST GEORGIA... CITY SKY/WX TMP DP RH WIND PRES REMARKS SAVANNAH ARPT LGT RAIN 73 70 90 SW5 30.08R HUNTER AAF RAIN 72 72 100 NE5 30.03F FORT STEWART RAIN 73 72 94 CALM 30.04S STATESBORO LGT RAIN 71 71 100 S5 30.08R SYLVANIA LGT RAIN 72 71 96 E5 30.09R CLAXTON NOT AVBL ...CSRA...CENTRAL AND FAR SOUTHEAST GEORGIA... CITY SKY/WX TMP DP RH WIND PRES REMARKS THOMSON CLOUDY 70 69 96 CALM 30.15S AUGUSTA-BUSH CLOUDY 70 67 90 CALM 30.09R AUGUSTA-DANIEL CLOUDY 79 60 52 NE3 30.11R SWAINSBORO CLOUDY 75 68 78 E6 30.08S VIDALIA CLOUDY 72 70 94 NE5 30.05F EASTMAN CLOUDY 73 73 100 CALM 30.07F HAZLEHURST CLOUDY 74 74 100 E5 30.04S ALMA CLOUDY 74 73 97 CALM 30.03F WAYCROSS CLOUDY 76 76 99 CALM 30.01F JESUP RAIN 75 73 94 E3 30.04F BAXLEY FAIR 75 73 94 E3 30.03F BRUNSWICK CLOUDY 72 72 100 N5 30.03F SAINT SIMONS CLOUDY 75 74 96 NW6 30.02F $$ SCZ027-028-034-036>038-045-046-048>050-GAZ119-141-301000- ...LAKE AND SUPPLEMENTAL COASTAL OBSERVATIONS... STATION/POSITION TIME TEMP WIND PRES WAVE SWELL AIR SEA DIR/SP/G HT/PER HT/PER/DIR (UTC) (F) (DEG/KT/KT) (MB) (FT/S) (FT/S/D) UPR LAKE MARION NOT AVBL WINYAH BAY 0745 76 110/ 6 1018.0 LAKE MURRAY 0800 75 70/ 1/ 3 1019.0F ACE BASIN NERRS NOT AVBL FORT PULASKI NOT AVBL SAPELO ISLAND 0800 77 220/ 10 1017.0S $$ ANZ835-935-AMZ111-154-330-350-352-354-370-450-454-472-301000- ...C-MAN AND BUOY OBSERVATIONS... STATION/POSITION TIME TEMP WIND PRES WAVE SWELL AIR SEA DIR/SP/G HT/PER HT/PER/DIR (UTC) (F) (DEG/KT/KT) (MB) (FT/S) (FT/S/D) BUOY 41004 0850 76 84 290/ 4/ 6 1018.5F 4/11 3/11 BUOY 41008 0850 81 85 200/ 6/ 8 1017.0F 5/11 3/100/11 FOLLY BEACH CMAN 0800 80 100/ 7/ 8 1018.5F CAPERS NEARSHORE NOT AVBL FRIPP NEARSHORE NOT AVBL STATION/POSITION TIME TEMP WIND PRES WAVE SWELL AIR SEA DIR/SP/G HT/PER HT/PER/DIR (UTC) (F) (DEG/KT/KT) (MB) (FT/S) (FT/S/D) 5E ST. MARYS GA 0821 86 N/A 6/11 2/110/11 FRYING PAN BUOY 0850 80 81 70/ 6/ 8 1019.2F 5/10 5/150/10 BUOY 41025 0850 78 81 350/ 10/ 12 1018.4F 4/10 3/100/10 CAPE LOOKOUT NC 0800 74 350/ 6/ 7 1018.8R BUOY 41002 0850 83 84 220/ 6/ 8 1018.9F 5/10 5/130/10 BUOY 41010 0820 84 85 130/ 14/ 17 1016.8R ST AUGUSTINE FL 0900 81 84 120/ 19/ 20 1016.2R $$

USA.gov is the U.S. government's official web portal to all federal, state and local government web resources and services.